Location: Brasstown Bald
(34.8693°N, 83.8103°W)
Time: 14:51:27
(UTC-04:00)

Amateur Radio Satellites - All Passes

Search period start: 02 September 2014 14:21
Search period end: 03 September 2014 14:21
Location: Brasstown Bald, 34.8693°N, 83.8103°W

Satellite Date Start Highest point End Downlink Frequencies (MHz)
Time Altitude Azimuth
Oscar 16 02 Sep 14:29:41 14:34:50 83° 257° (WSW) 14:40:02 437.025 USB, Beacon 2401.1428
MaSat-1 02 Sep 14:31:31 14:35:12 21° 304° (NW) 14:39:02 437.345 MHz
ITAMSAT 1 02 Sep 14:33:37 14:38:28 43° 72° (ENE) 14:43:20 435.822 SSB
Uribyol 2 02 Sep 14:42:36 14:47:38 57° 73° (ENE) 14:52:41 436.500 FM
PANSAT 02 Sep 14:48:22 14:51:25 22° 193° (SSW) 14:54:27 not established
TMSAT-1 02 Sep 14:58:53 15:03:02 24° 68° (ENE) 15:07:13 436.925 FM
AO-27 02 Sep 15:03:04 15:08:15 88° 76° (ENE) 15:13:27 436.795 MHz FM
UOSAT-12 02 Sep 15:19:41 15:24:18 55° 244° (WSW) 15:28:49 437.025 FM, 437.400 FM
Oscar 19 02 Sep 15:35:19 15:38:57 19° 266° (W) 15:42:37 437.125 CW, 437.150 USB
PCSat 02 Sep 15:36:14 15:38:27 13° 103° (ESE) 15:40:40 145.825 MHz
AO-Echo 02 Sep 15:38:10 15:42:47 36° 262° (W) 15:47:17 ?
Gurwin Techsat 1B 02 Sep 15:47:43 15:53:01 81° 257° (WSW) 15:58:21 435.225 FM
JAS-1B 02 Sep 16:01:47 16:11:03 46° 261° (W) 16:19:34 435.800 - 435.900 CW/SSB
ITAMSAT 1 02 Sep 16:14:33 16:18:06 19° 266° (W) 16:21:40 435.822 SSB
ISS 02 Sep 16:17:37 16:20:01 18° 31° (NNE) 16:22:25 145.800 FM
Uribyol 2 02 Sep 16:24:50 16:27:25 14° 267° (W) 16:30:00 436.500 FM
RS-15 02 Sep 16:26:32 16:36:58 43° 50° (NE) 16:47:42 29.354 - 29.394 USB, Beacon 29.352 USB
AO-7 02 Sep 16:30:09 16:38:10 54° 67° (ENE) 16:46:10 29.400 - 29.500 MHz
Uosat F 02 Sep 16:31:14 16:35:43 34° 70° (ENE) 16:40:12 435.120 FM
TMSAT-1 02 Sep 16:37:54 16:42:43 36° 262° (W) 16:47:34 436.925 FM
Sapphire 02 Sep 16:46:46 16:52:03 59° 112° (ESE) 16:57:22 437.095 MHz 1200 baud AX-25 AFSK
PCSat 02 Sep 17:15:49 17:21:11 70° 297° (WNW) 17:26:36 145.825 MHz
ISS 02 Sep 17:53:43 17:56:54 44° 227° (SW) 18:00:05 145.800 FM
OPAL 02 Sep 18:06:36 18:11:49 73° 104° (ESE) 18:16:59 ?
Uosat F 02 Sep 18:10:37 18:14:30 23° 264° (W) 18:18:24 435.120 FM
JAS-2 02 Sep 18:23:55 18:29:47 49° 73° (ENE) 18:35:05 435.800 - 435.900 CW/SSB, 435.910 FM
AO-7 02 Sep 18:24:09 18:31:09 30° 263° (W) 18:38:11 29.400 - 29.500 MHz
Sapphire 02 Sep 18:32:12 18:35:52 18° 309° (NW) 18:39:32 437.095 MHz 1200 baud AX-25 AFSK
RS-15 02 Sep 18:38:50 18:49:27 52° 250° (WSW) 19:00:33 29.354 - 29.394 USB, Beacon 29.352 USB
Hamsat 02 Sep 18:50:04 18:54:23 90° 259° (W) 18:58:46 145.90 MHz
SO-67 02 Sep 19:10:37 19:12:41 15° 70° (ENE) 19:14:46 435.3500 MHz FM
OPAL 02 Sep 19:47:50 19:50:01 13° 299° (WNW) 19:52:13 ?
STRAND 1 02 Sep 19:55:40 20:00:28 41° 99° (E) 20:05:16 ?
JAS-2 02 Sep 20:10:47 20:14:59 19° 264° (W) 20:18:55 435.800 - 435.900 CW/SSB, 435.910 FM
HO-68 02 Sep 20:31:20 20:36:36 23° 61° (ENE) 20:41:53 435.675 MHz FM
SO-67 02 Sep 20:42:43 20:45:31 23° 264° (W) 20:48:20 435.3500 MHz FM
Saudisat 1A 02 Sep 21:17:39 21:19:36 13° 108° (ESE) 21:21:33 436.775 MHz
STRAND 1 02 Sep 21:35:40 21:39:20 20° 293° (WNW) 21:43:00 ?
KITSAT 1 02 Sep 21:50:22 21:53:44 13° 100° (E) 21:57:05 435.175 FM
HO-68 02 Sep 22:16:41 22:23:43 62° 257° (WSW) 22:30:47 435.675 MHz FM
UKube-1 02 Sep 22:27:04 22:31:23 75° 258° (WSW) 22:35:44 145.840 MHz, 145.915 MHz
Oscar 11 02 Sep 22:29:42 22:34:00 70° 76° (ENE) 22:38:21 145.825 FM, Beacon 2401.500 USB
MaSat-1 02 Sep 22:51:18 22:55:30 43° 62° (ENE) 22:59:05 437.345 MHz
Saudisat 1A 02 Sep 22:54:24 22:58:41 52° 302° (WNW) 23:03:00 436.775 MHz
FUNcube-1 02 Sep 23:04:39 23:08:47 63° 76° (ENE) 23:13:00 145.950 - 145.970 MHz USB
KITSAT 1 02 Sep 23:39:49 23:47:54 84° 115° (ESE) 23:56:02 435.175 FM
MaSat-1 03 Sep 00:30:41 00:31:44 11° 262° (W) 00:32:46 437.345 MHz
KITSAT 1 03 Sep 01:38:17 01:44:14 22° 315° (NW) 01:50:13 435.175 FM
Sapphire 03 Sep 01:38:40 01:43:03 24° 54° (NE) 01:47:25 437.095 MHz 1200 baud AX-25 AFSK
PCSat 03 Sep 02:07:13 02:12:26 46° 59° (ENE) 02:17:36 145.825 MHz
Oscar 19 03 Sep 02:10:30 02:14:13 20° 94° (E) 02:17:54 437.125 CW, 437.150 USB
Oscar 16 03 Sep 02:44:59 02:49:59 46° 100° (E) 02:54:56 437.025 USB, Beacon 2401.1428
ITAMSAT 1 03 Sep 02:50:38 02:54:26 20° 95° (E) 02:58:13 435.822 SSB
Uribyol 2 03 Sep 02:59:14 03:03:36 27° 96° (E) 03:07:57 436.500 FM
AO-27 03 Sep 03:19:44 03:24:38 41° 99° (E) 03:29:31 436.795 MHz FM
TMSAT-1 03 Sep 03:19:45 03:21:34 12° 91° (E) 03:23:23 436.925 FM
Sapphire 03 Sep 03:21:31 03:26:35 41° 250° (WSW) 03:31:38 437.095 MHz 1200 baud AX-25 AFSK
SO-50 03 Sep 03:47:45 03:52:10 66° 301° (WNW) 03:56:42 436.795 FM
AO-Echo 03 Sep 03:48:12 03:52:55 87° 283° (WNW) 03:57:41 ?
Oscar 19 03 Sep 03:48:49 03:53:41 41° 289° (WNW) 03:58:30 437.125 CW, 437.150 USB
PCSat 03 Sep 03:51:34 03:55:27 20° 255° (WSW) 03:59:19 145.825 MHz
JAS-1B 03 Sep 03:53:02 03:59:25 74° 102° (ESE) 04:05:06 435.800 - 435.900 CW/SSB
Gurwin Techsat 1B 03 Sep 04:07:28 04:12:40 54° 100° (E) 04:17:50 435.225 FM
Oscar 16 03 Sep 04:25:25 04:28:56 19° 294° (WNW) 04:32:25 437.025 USB, Beacon 2401.1428
ITAMSAT 1 03 Sep 04:29:12 04:34:01 40° 289° (WNW) 04:38:50 435.822 SSB
AO-7 03 Sep 04:37:00 04:42:43 20° 94° (E) 04:48:23 29.400 - 29.500 MHz
Uribyol 2 03 Sep 04:38:29 04:43:00 31° 291° (WNW) 04:47:31 436.500 FM
Uosat F 03 Sep 04:43:52 04:46:16 13° 93° (E) 04:48:38 435.120 FM
TMSAT-1 03 Sep 04:56:38 05:01:55 69° 285° (WNW) 05:07:09 436.925 FM
AO-27 03 Sep 05:00:04 05:03:49 21° 294° (WNW) 05:07:35 436.795 MHz FM
OPAL 03 Sep 05:18:13 05:23:16 88° 74° (ENE) 05:28:26 ?
UOSAT-12 03 Sep 05:27:18 05:31:53 83° 299° (WNW) 05:36:35 437.025 FM, 437.400 FM
JAS-1B 03 Sep 05:46:08 05:49:04 14° 303° (WNW) 05:51:51 435.800 - 435.900 CW/SSB
Gurwin Techsat 1B 03 Sep 05:48:53 05:52:08 17° 295° (WNW) 05:55:24 435.225 FM
Uosat F 03 Sep 06:20:27 06:25:20 56° 287° (WNW) 06:30:13 435.120 FM
AO-7 03 Sep 06:27:50 06:36:05 74° 290° (WNW) 06:44:18 29.400 - 29.500 MHz
Hamsat 03 Sep 06:40:07 06:43:22 21° 95° (E) 06:46:35 145.90 MHz
RS-15 03 Sep 06:46:57 06:56:35 35° 106° (ESE) 07:06:00 29.354 - 29.394 USB, Beacon 29.352 USB
STRAND 1 03 Sep 07:08:23 07:13:09 42° 72° (ENE) 07:17:56 ?
UOSAT-12 03 Sep 07:12:04 07:12:46 10° 317° (NW) 07:13:28 437.025 FM, 437.400 FM
JAS-2 03 Sep 07:20:10 07:25:29 57° 101° (ESE) 07:31:21 435.800 - 435.900 CW/SSB, 435.910 FM
Saudisat 1A 03 Sep 07:24:13 07:28:28 45° 57° (ENE) 07:32:41 436.775 MHz
KITSAT 1 03 Sep 07:37:41 07:44:01 24° 46° (NE) 07:50:17 435.175 FM
SO-67 03 Sep 08:09:19 08:12:18 27° 97° (E) 08:15:16 435.3500 MHz FM
Hamsat 03 Sep 08:15:36 08:19:17 27° 289° (WNW) 08:22:55 145.90 MHz
AO-7 03 Sep 08:23:41 08:27:26 14° 308° (NW) 08:31:12 29.400 - 29.500 MHz
STRAND 1 03 Sep 08:48:58 08:52:29 19° 266° (W) 08:56:00 ?
ISS 03 Sep 08:57:28 09:00:21 28° 131° (SE) 09:03:15 145.800 FM
RS-15 03 Sep 08:57:28 09:08:19 58° 305° (NW) 09:19:04 29.354 - 29.394 USB, Beacon 29.352 USB
Saudisat 1A 03 Sep 09:05:11 09:07:37 15° 251° (WSW) 09:10:03 436.775 MHz
JAS-2 03 Sep 09:07:03 09:10:13 16° 294° (WNW) 09:13:32 435.800 - 435.900 CW/SSB, 435.910 FM
KITSAT 1 03 Sep 09:32:06 09:40:09 75° 246° (WSW) 09:48:09 435.175 FM
SO-67 03 Sep 09:43:24 09:45:04 13° 291° (WNW) 09:46:43 435.3500 MHz FM
HO-68 03 Sep 09:48:30 09:54:42 31° 97° (E) 10:00:52 435.675 MHz FM
UKube-1 03 Sep 10:19:18 10:22:47 23° 96° (E) 10:26:16 145.840 MHz, 145.915 MHz
Oscar 11 03 Sep 10:21:58 10:24:45 16° 94° (E) 10:27:30 145.825 FM, Beacon 2401.500 USB
ISS 03 Sep 10:34:16 10:37:03 24° 326° (NW) 10:39:51 145.800 FM
FUNcube-1 03 Sep 10:58:00 11:01:02 17° 94° (E) 11:04:05 145.950 - 145.970 MHz USB
PANSAT 03 Sep 11:03:38 11:06:47 24° 168° (SSE) 11:09:56 not established
RS-15 03 Sep 11:17:11 11:23:44 17° 333° (NNW) 11:30:19 29.354 - 29.394 USB, Beacon 29.352 USB
KITSAT 1 03 Sep 11:32:42 11:34:10 11° 261° (W) 11:35:39 435.175 FM
HO-68 03 Sep 11:35:46 11:42:26 44° 292° (WNW) 11:49:06 435.675 MHz FM
UKube-1 03 Sep 11:55:20 11:58:53 25° 290° (WNW) 12:02:25 145.840 MHz, 145.915 MHz
Oscar 11 03 Sep 11:57:01 12:01:00 35° 288° (WNW) 12:04:57 145.825 FM, Beacon 2401.500 USB
SO-50 03 Sep 12:22:26 12:27:02 44° 56° (ENE) 12:31:40 436.795 FM
FUNcube-1 03 Sep 12:33:16 12:37:30 38° 287° (WNW) 12:41:45 145.950 - 145.970 MHz USB
MaSat-1 03 Sep 12:34:44 12:39:13 40° 107° (ESE) 12:44:00 437.345 MHz
PANSAT 03 Sep 12:43:06 12:46:33 31° 181° (S) 12:50:01 not established
Oscar 10/S400 03 Sep 13:03:40 03:40:47 53° 222° (SW) 13:11:38 145.825 - 145.975 CW/USB, Beacon 145.810 USB
Oscar 19 03 Sep 13:24:23 13:28:11 21° 67° (ENE) 13:32:01 437.125 CW, 437.150 USB
RS-15 03 Sep 13:39:18 13:43:05 12° 12° (NNE) 13:46:54 29.354 - 29.394 USB, Beacon 29.352 USB
Oscar 16 03 Sep 13:58:38 14:03:34 48° 72° (ENE) 14:08:32 437.025 USB, Beacon 2401.1428
UOSAT-12 03 Sep 14:00:23 14:04:41 34° 54° (NE) 14:08:54 437.025 FM, 437.400 FM
SO-50 03 Sep 14:03:58 14:07:16 19° 251° (WSW) 14:10:35 436.795 FM
ITAMSAT 1 03 Sep 14:05:38 14:09:36 23° 67° (ENE) 14:13:34 435.822 SSB
MaSat-1 03 Sep 14:12:30 14:16:22 23° 303° (WNW) 14:20:22 437.345 MHz
